Location: Dehesa de la Cepeda
(40.6574°N, 4.3013°W)
Time: 20:01:03
(UTC+00:00)

Vanguard 2 Rocket - Pass Details

Date: 07 August 2021
Orbit: 556 x 3324 km, 32.9° (Epoch: 19 September)

Event Time Altitude Azimuth Distance (km) Brightness Sun altitude
Rises 04:13:17 0° 220° (SW) 4,687 - -11.9°
Exits shadow 04:17:19 - 207° (SSW) 3,381 9.3 -11.3°
Reaches altitude 10° 04:18:03 10° 204° (SSW) 3,157 9.2 -11.2°
Maximum altitude 04:22:41 18° 164° (SSE) 2,134 8.6 -10.4°
Drops below altitude 10° 04:26:13 10° 122° (ESE) 2,297 9.3 -9.9°
Sets 04:28:58 0° 101° (ESE) 2,991 10.4 -9.4°
